OMAA

Abu Dhabi International Airport

Airport
ICAO code
OMAA
IATA Code
AUH
Summary
ICAO Region
MID
ICAO Territory
Location

Abu Dhabi, Abu Dhabi

Serving
Abu Dhabi
Elevation
88 ft
Coordinates
24° 25' 59" N , 54° 39' 4" E
KCC
Airport LOS
Parallel Runway Operation
Airport WX
Fog
Metar
Observation
OMAA 070100Z 04003KT 020V110 6000 NSC 21/18 Q1014 BECMG 10005KT TEMPO 4000 HZ
Station
Abu Dhabi International Airport
Date/Time
2022-12-07 01:00:00
Wind direction
40°
Wind speed
03 kts
Lowest cloud amount
nil significant cloud
Temperature
21°C
Dew point
18°C
Humidity
83%
QNH
1014 hPa
Weather condition
n/a

International airport to the east of the city of Abu Dhabi.

Climatology

Hot Desert Climate (Köppen climate classification BWh)

Runways

Designator Length Width Surface Rops
13/31 4100 45 ASP Yes/Yes

SKYbrary Partners:

Safety knowledge contributed by: